www.pogodaiklimat.ru

Погода и климат >> Архив погоды >> Оман >> Карн Аль Алам


ПОГОДА в Карн Аль Алам

  • Прогноз погоды в Карн Аль Алам
  • Монитор погоды в Карн Аль Алам

АРХИВ ПОГОДЫ в Карн Аль Алам

Время (UTC), дата Ветер
(напр.,м/с)
 
Видим.   Явления Облачность Т
(С)
Тd
(С)
f
(%)
Тe
(С)
Тes
(С)
Комфортность P
(гПа)
Po
(гПа)
Тmin
(С)
Tmax
(С)
R
(мм)
R24
(мм)
S
(см)
15 12.01 СЗ 4 н/о н/о +24.2 +4.0 27 +24 +24 комфорт 1016.9 1000.1
18 12.01 З 2 н/о н/о +19.8 +4.2 36 +21 +21 комфорт 1019.2 1002.2 +28.3
21 12.01 З 2 н/о н/о +15.8 +3.2 43 +16 +16 1019.2 1001.9
00 13.01 З 3 н/о н/о +14.3 +4.9 53 +14 +14 1019.1 1001.7
03 13.01 СЗ 4 н/о н/о +13.4 +8.2 71 +12 +12 1020.6 1003.1
06 13.01 С 3 н/о н/о +20.8 +11.5 55 +23 +23 комфорт 1021.8 1004.8 +13.4
09 13.01 Ю 3 н/о н/о +25.6 +13.7 48 +28 +28 жарко 1019.2 1002.5
12 13.01 Ю 3 н/о н/о +27.5 +12.3 39 +29 +29 жарко 1017.1 1000.6
15 13.01 Ю 1 н/о н/о +25.1 +11.1 41 +26 +26 жарко 1018.6 1001.9
18 13.01 ЮВ 4 н/о н/о +21.5 +14.0 62 +24 +24 комфорт 1020.2 1003.2 +28.0
21 13.01 штиль 0 н/о н/о +19.1 +14.5 75 +20 +20 1019.7 1002.6
00 14.01 СВ 1 н/о н/о +17.8 +14.5 81 +19 +19 1019.3 1002.1
03 14.01 СВ 2 н/о н/о +16.6 +13.7 83 +17 +17 1020.3 1003.1
06 14.01 В 6 н/о н/о +23.3 +16.1 64 +28 +28 душно 1021.7 1004.9 +16.4
09 14.01 В 6 н/о н/о +27.3 +13.4 42 +29 +29 жарко 1018.8 1002.2
12 14.01 ЮВ 6 н/о н/о +28.5 +11.0 34 +29 +29 жарко 1016.7 1000.1
15 14.01 ЮВ 7 н/о н/о +25.4 +13.0 46 +27 +27 жарко 1018.5 1001.8
18 14.01 ЮВ 5 н/о н/о +21.8 +15.2 66 +25 +25 комфорт 1020.0 1003.1 +29.1
21 14.01 ЮВ 3 н/о н/о +18.6 +15.0 80 +20 +20 1020.0 1002.9
00 15.01 ЮВ 3 н/о н/о +17.2 +14.7 85 +17 +17 1019.6 1002.4
03 15.01 СВ 4 н/о н/о +16.4 +14.6 89 +16 +16 1021.0 1003.7
06 15.01 В 6 н/о н/о +23.4 +16.3 64 +28 +28 душно 1022.2 1005.4 +16.2
09 15.01 ЮВ 4 н/о н/о +26.4 +14.6 48 +29 +29 жарко 1018.9 1002.2
12 15.01 В 4 н/о н/о +28.1 +13.2 40 +30 +30 жарко 1016.8 1000.2
15 15.01 ЮВ 3 н/о н/о +25.3 +11.5 42 +27 +27 жарко 1018.2 1001.5
18 15.01 Ю 6 н/о н/о +21.7 +13.7 60 +24 +24 комфорт 1019.8 1002.9 +28.5
21 15.01 Ю 2 н/о н/о +18.4 +13.8 75 +19 +19 1019.2 1002.1
00 16.01 С 3 н/о н/о +15.3 +10.9 75 +15 +15 1018.9 1001.6
03 16.01 В 2 н/о н/о +14.3 +10.4 77 +14 +14 1019.8 1002.4
06 16.01 ЮВ 3 н/о н/о +22.2 +15.5 66 +26 +26 душно 1020.9 1003.9 +14.2
09 16.01 Ю 3 н/о н/о +25.5 +15.3 53 +28 +28 жарко 1017.9 1001.2
12 16.01 ЮВ 3 н/о н/о +28.0 +14.3 43 +30 +30 жарко 1015.4 998.9
15 16.01 ЮВ 3 н/о н/о +25.4 +12.9 46 +27 +27 жарко 1016.3 999.6
18 16.01 Ю 4 н/о н/о +21.6 +14.6 64 +25 +25 комфорт 1018.0 1001.1 +28.2
21 16.01 Ю 3 н/о н/о +18.2 +14.6 80 +19 +19 1017.2 1000.1
00 17.01 Ю 3 н/о н/о +15.7 +13.8 88 +15 +15 1016.4 999.2
03 17.01 Ю 3 н/о н/о +13.5 +12.2 92 +12 +12 1017.6 1000.2
06 17.01 Ю 5 н/о н/о +22.1 +15.6 67 +26 +26 душно 1018.9 1002.0 +13.4
09 17.01 ЮВ 2 н/о н/о +27.1 +14.4 46 +30 +30 душно 1015.6 999.1
12 17.01 ЮВ 4 н/о н/о +29.3 +11.1 32 +30 +30 жарко 1013.3 996.9
15 17.01 ЮВ 3 н/о н/о +25.4 +9.7 37 +26 +26 жарко 1015.0 998.3
18 17.01 Ю 5 н/о н/о +21.4 +14.9 66 +24 +24 комфорт 1016.7 999.8 +29.4
21 17.01 Ю 3 н/о н/о +19.0 +16.4 85 +21 +21 комфорт 1016.4 999.4
00 18.01 Ю 3 н/о н/о +16.4 +14.6 89 +16 +16 1016.3 999.1
03 18.01 В 2 н/о н/о +14.6 +12.7 88 +15 +15 1017.7 1000.4
06 18.01 Ю 1 н/о н/о +22.4 +17.4 73 +27 +27 душно 1019.2 1002.4 +14.5
09 18.01 СЗ 5 н/о н/о +26.3 +16.9 56 +30 +30 душно 1016.8 1000.2
12 18.01 З 3 н/о н/о +27.1 +14.6 46 +30 +30 душно 1014.6 998.1
15 18.01 ЮЗ 3 н/о н/о +24.8 +13.2 48 +27 +27 жарко 1015.8 999.1
18 18.01 З 4 н/о н/о +21.5 +11.3 52 +23 +23 комфорт 1017.4 1000.4 +27.4
21 18.01 СЗ 6 н/о н/о +19.2 +10.0 55 +20 +20 1016.8 999.8
00 19.01 СЗ 6 н/о н/о +16.8 +8.6 58 +16 +16 1016.5 999.3
03 19.01 СЗ 5 н/о н/о +15.0 +9.1 68 +14 +14 1017.9 1000.6
06 19.01 СЗ 7 н/о н/о +21.2 +8.8 45 +22 +22 комфорт 1019.5 1002.5 +14.9
09 19.01 СЗ 7 н/о н/о +26.2 +5.5 27 +26 +26 жарко 1016.9 1000.3
12 19.01 СЗ 8 н/о н/о +26.9 +5.7 26 +26 +26 жарко 1015.2 998.6

 

Местоположение метеостанции Карн Аль Алам (Оман): широта 21.37 долгота 57.05 высота над уровнем моря 139 м.

В архиве по умолчанию представлена погода в Карн Аль Алам за последнюю неделю. Архивные данные за месяц целиком и за предыдущие месяцы, начиная с января 2011 года, Вы можете получить, выбрав интересующий диапазон дат из раскрывающегося списка и нажав кнопку "Ввод!".


*Определитесь, кто Вы:
робот инопланетянин человек

Внимание! Время в таблицах - всемирное. Для получения местного времени необходимо прибавить поправку, которая равна 4 ч.

Смотрите также архив погоды в соседних городах и на ближайших метеорологических станциях:

Погода в Умзамайме (Оман) (64 км)
Погода в Фахуде (Оман) (122 км)
Погода в Адаме (Оман) (122 км)
Погода на Джобе (Оман) (137 км)
Погода в Ялони (Оман) (159 км)
Погода в Аль Мудайби (Оман) (169 км)
Погода в Назве (Оман) (172 км)
Погода в Бахле (Оман) (181 км)
Погода в Саике (Оман) (198 км)
Погода в Эль-Дакуме (Оман) (204 км)

Пояснения к столбцам:

Ветер - указаны скорость ветра в м/с - средняя за 10 мин, порывы в срок и между сроками (в фигурных скобках) и направление, откуда дует ветер: С - северный, СВ - северо-восточный, В - восточный, ЮВ - юго-восточный, Ю - южный, ЮЗ - юго-западный, З - западный, СЗ - северо-западный.
Видимость - горизонтальная дальность видимости в метрах или километрах. При видимости от 1 до 10 км при отсутствии осадков обычно наблюдается дымка, при ухудшении видимости до 1 км и менее - туман. В сухую погоду видимость может ухудшаться дымом, пылью или мглою.
Явления - указаны атмосферные явления, наблюдавшиеся в срок или в последний час перед сроком; фигурными скобками обозначены явления, наблюдавшиеся между сроками (за 1-3 часа до срока); квадратными скобками обозначены град или гололедные отложения с указанием их диаметра в мм.
Облачность - указаны через наклонную черту общая и нижняя облачность в баллах и высота нижней границы облаков в метрах; квадратными скобками обозначены формы облаков: Ci - перистые, Cs - перисто-слоистые, Cc - перисто-кучевые, Ac - высококучевые, As - высокослоистые, Sc - слоисто-кучевые, Ns - слоисто-дождевые, Cu - кучевые, Cb - кучево-дождевые. Подробнее классификацию облаков см. в Атласе облаков (PDF).
T - Температура воздуха - температура, измеренная на высоте 2 м над землей.
Td - Температура точки росы - температура, при понижении до которой содержащийся в воздухе водяной пар достигнет насыщения.
f - Относительная влажность воздуха - влажноcть воздуха, измеренная на высоте 2 м над землей.
Te - Эффективная температура - температура, которую ощущает одетый по сезону человек в тени. Характеристика душности погоды. При расчете учитывается влияние влажности воздуха и скорости ветра на теплоощущения человека.
Tes - Эффективная температура на солнце - температура, которую ощущает человек, с поправкой на солнечный нагрев. Характеристика знойности погоды. Зависит от высоты солнца над горизонтом, облачности и скорости ветра. Ночью, в пасмурную погоду, а также при ветре 12 м/с и более поправка равна нулю.
P - Атмосферное давление - приведенное к уровню моря атмосферное давление.
Po - Атмосферное давление - измеренное на уровне метеостанции атмосферное давление.
Tmin - Минимальная температура - минимум температуры воздуха на высоте 2 м над землей.
Tmax - Максимальная температура - максимум температуры воздуха на высоте 2 м над землей.
R - Количество осадков - Количество выпавших осадков за период времени, мм. При наведении курсора мыши на число - период времени, за который выпало указанное количество осадков.
R24 - Количество осадков - Количество выпавших осадков за 24 часа, мм.
S - Снежный покров - Высота снежного покрова, см. При наведении курсора мыши на число - состояние снежного покрова и степень покрытия местности в баллах.